{"data":{"norad_id":69536,"intl_designator":"2026-133AE","name":"STARLINK-37889","alt_names":[],"object_type":"PAYLOAD","status":"ACTIVE","operator":null,"country":"US","launch_date":"2026-06-12","launch_site_code":"AFETR","launch_vehicle":null,"mission":null,"orbit_class":"UNKNOWN","rcs_meters":null,"size_class":null,"mass_kg":null,"dimensions":null,"purposes":["comms"],"wikipedia_slug":null,"has_3d_model":false,"image_url":null,"decayed_at":null,"tle_current":{"epoch":"2026-09-19T12:18:37.190880Z","epoch_age_seconds":110786,"freshness":"FRESH","line1":"1 69536U 26133AE  26262.51293045  .00018982  00000+0  57133-3 0  9990","line2":"2 69536  53.1574 234.2572 0002257  87.1116 273.0145 15.34409807 16618","mean_motion":15.34409807,"eccentricity":0.0002257,"inclination_deg":53.1574,"raan_deg":234.2572,"arg_perigee_deg":87.1116,"mean_anomaly_deg":273.0145,"bstar":0.00057133,"rev_number":1661,"period_min":93.847158264415,"perigee_km":461.13012082818,"apogee_km":464.21806295506,"semimajor_km":6840.8110918916,"source":"CELESTRAK","updated_at":"2026-09-20T09:00:44.241221Z"}}}